KD8YBJ Weather Reports


time (UTC)temp
C
wind
direction
speed
KPH
gust
KPH
rain 1hr
cm
rain 24hr
cm
rain mn
cm
humidity
%
barometer
mb
20260906124520 16 113 0.0 3.2 0.00 0.20 0.00 88 1020.2
20260906123521 16 114 1.6 3.2 0.00 0.20 0.00 89 1020.1
20260906122521 16 105 0.0 3.2 0.00 0.20 0.00 91 1020.0
20260906121521 15 92 1.6 3.2 0.00 0.20 0.00 94 1020.0
20260906120521 14 234 0.0 3.2 0.00 0.20 0.00 96 1019.9
20260906115521 14 303 0.0 3.2 0.00 0.20 0.00 96 1019.8
20260906114541 14 41 0.0 0.0 0.00 0.20 0.00 96 1019.8
20260906113522 14 2 0.0 3.2 0.00 0.20 0.00 96 1019.7
20260906112522 14 356 0.0 3.2 0.00 0.20 0.00 96 1019.4
20260906111524 14 353 0.0 1.6 0.00 0.20 0.00 96 1019.3
20260906110522 14 347 0.0 1.6 0.00 0.20 0.00 96 1019.4
20260906105522 14 105 0.0 1.6 0.00 0.20 0.00 96 1019.3
20260906104522 14 0.0 0.0 0.00 0.20 0.00 96 1019.4
20260906103523 15 356 0.0 1.6 0.00 0.20 0.00 95 1019.3
20260906102522 15 126 0.0 3.2 0.00 0.20 0.00 95 1019.2
20260906101523 15 61 0.0 1.6 0.00 0.20 0.00 95 1019.2
20260906100523 15 108 0.0 1.6 0.00 0.20 0.00 96 1019.2
20260906095603 15 105 0.0 1.6 0.00 0.20 0.00 96 1019.2
20260906094524 15 0.0 0.0 0.00 0.20 0.00 96 1019.1
20260906093559 15 287 0.0 1.6 0.00 0.20 0.00 95 1019.1
20260906092524 15 349 0.0 1.6 0.00 0.20 0.00 95 1019.1
20260906091604 15 144 0.0 1.6 0.00 0.20 0.00 95 1019.0
20260906090524 15 293 0.0 3.2 0.00 0.20 0.00 95 1019.0
20260906085524 15 321 0.0 1.6 0.00 0.20 0.00 95 1019.0
20260906084545 15 290 0.0 1.6 0.00 0.20 0.00 95 1018.9
20260906083525 15 304 0.0 1.6 0.00 0.20 0.00 94 1018.8
20260906082547 15 0.0 0.0 0.00 0.20 0.00 94 1018.6
20260906081525 15 0.0 0.0 0.00 0.20 0.00 93 1018.4
20260906080525 16 280 0.0 1.6 0.00 0.20 0.00 93 1018.3
20260906075525 16 24 0.0 1.6 0.00 0.20 0.00 93 1018.2
20260906074526 16 0.0 0.0 0.00 0.20 0.00 92 1018.2
20260906073526 16 295 0.0 1.6 0.00 0.20 0.00 92 1018.2
20260906072526 16 67 0.0 3.2 0.00 0.20 0.00 91 1018.3
20260906071526 16 95 1.6 4.8 0.00 0.20 0.00 91 1018.2
20260906070526 16 317 0.0 3.2 0.00 0.20 0.00 91 1018.1
20260906065526 16 101 1.6 3.2 0.00 0.20 0.00 91 1018.2
20260906064527 16 355 0.0 3.2 0.00 0.20 0.00 91 1018.3
20260906063526 17 64 0.0 3.2 0.00 0.20 0.00 90 1018.3
20260906062527 17 128 0.0 3.2 0.00 0.20 0.00 90 1018.3
20260906061527 17 99 1.6 4.8 0.00 0.20 0.00 90 1018.3
20260906060527 17 75 0.0 3.2 0.00 0.20 0.00 90 1018.2
20260906055547 17 78 0.0 1.6 0.00 0.20 0.00 90 1018.3
20260906054527 17 0.0 0.0 0.00 0.20 0.00 90 1018.3
20260906053527 17 110 0.0 4.8 0.00 0.20 0.00 89 1018.1
20260906052528 17 35 0.0 0.0 0.00 0.20 0.00 88 1018.0
20260906051548 17 86 1.6 4.8 0.00 0.20 0.00 89 1018.0
20260906050528 18 0.0 0.0 0.00 0.20 0.00 89 1017.9
20260906045528 18 312 0.0 1.6 0.00 0.20 0.00 88 1017.9
20260906044549 18 77 0.0 1.6 0.00 0.20 0.00 87 1017.8
20260906043529 18 340 0.0 1.6 0.00 0.20 0.00 87 1017.8
20260906042529 18 51 0.0 0.0 0.00 0.20 0.00 87 1017.7
20260906041529 18 90 0.0 1.6 0.00 0.20 0.00 88 1017.5
20260906040529 18 30 0.0 1.6 0.00 0.20 0.00 92 1017.4
20260906035549 18 105 1.6 6.4 0.00 0.20 0.20 95 1017.4
20260906034530 18 96 1.6 4.8 0.00 0.20 0.20 97 1017.2
20260906033530 18 301 0.0 1.6 0.00 0.20 0.20 97 1017.1
20260906032530 18 300 0.0 1.6 0.00 0.20 0.20 97 1017.1
20260906031530 19 318 0.0 0.0 0.00 0.20 0.20 97 1017.0
20260906030530 19 320 0.0 1.6 0.00 0.20 0.20 97 1016.9
20260906025515 19 0.0 0.0 0.00 0.20 0.20 97 1016.9
20260906024515 19 308 0.0 3.2 0.00 0.20 0.20 97 1016.8
20260906023516 20 238 0.0 1.6 0.00 0.20 0.20 97 1016.8
20260906022515 20 0.0 0.0 0.00 0.20 0.20 97 1016.8
20260906021516 20 309 0.0 1.6 0.00 0.20 0.20 97 1016.6
20260906020516 20 278 0.0 1.6 0.00 0.20 0.20 96 1016.5
20260906015516 20 313 0.0 1.6 0.00 0.20 0.20 96 1016.5
20260906014516 20 146 0.0 1.6 0.00 0.20 0.20 96 1016.5
20260906013517 21 77 1.6 3.2 0.00 0.20 0.20 96 1016.4
20260906012517 21 313 1.6 3.2 0.00 0.20 0.20 95 1016.2
20260906011517 21 325 0.0 1.6 0.00 0.20 0.20 94 1016.1
20260906010517 21 0.0 0.0 0.00 0.20 0.20 94 1015.9
20260906005517 22 294 0.0 3.2 0.00 0.20 0.20 93 1015.8
20260906004517 22 0.0 0.0 0.00 0.20 0.20 93 1015.7
20260906003517 22 0.0 0.0 0.00 0.20 0.20 92 1015.7
20260906002518 22 278 1.6 4.8 0.00 0.20 0.20 91 1015.6
20260906001518 23 301 1.6 3.2 0.00 0.20 0.20 89 1015.7
20260906000518 23 257 0.0 3.2 0.00 0.20 0.20 88 1015.7
20260905235518 23 264 1.6 3.2 0.00 0.20 0.20 88 1015.8
20260905234519 23 263 1.6 3.2 0.00 0.20 0.20 87 1015.8
20260905233519 23 256 1.6 4.8 0.00 0.20 0.20 85 1015.8
20260905232539 23 246 0.0 3.2 0.00 0.20 0.20 85 1015.8
20260905231519 23 269 1.6 4.8 0.00 0.20 0.20 85 1015.8
20260905230519 24 270 1.6 3.2 0.00 0.20 0.20 87 1015.6
20260905225519 24 0.0 0.0 0.00 0.20 0.20 86 1015.6
20260905224519 25 265 3.2 4.8 0.00 0.20 0.20 85 1015.7
20260905223520 27 293 4.8 8.0 0.00 0.20 0.20 74 1015.7
20260905222540 27 298 0.0 3.2 0.00 0.20 0.20 70 1015.5
20260905221600 27 233 0.0 3.2 0.00 0.20 0.20 70 1015.5
20260905220520 27 144 0.0 1.6 0.00 0.20 0.20 71 1015.4
20260905215520 26 222 1.6 4.8 0.00 0.20 0.20 72 1015.3
20260905214521 26 136 1.6 8.0 0.00 0.20 0.20 72 1015.2
20260905213520 26 108 1.6 4.8 0.00 0.20 0.20 73 1015.1
20260905212520 25 56 0.0 1.6 0.00 0.20 0.20 75 1015.2
20260905211521 25 106 1.6 4.8 0.00 0.20 0.20 78 1015.4
20260905210521 25 89 3.2 9.7 0.00 0.20 0.20 78 1015.4
20260905205521 25 100 1.6 6.4 0.00 0.20 0.20 79 1015.2
20260905204522 25 38 1.6 4.8 0.00 0.20 0.20 81 1015.2
20260905203602 24 45 1.6 3.2 0.00 0.20 0.20 82 1015.3
20260905202522 23 71 1.6 4.8 0.00 0.20 0.20 84 1015.4
20260905201522 22 55 0.0 4.8 0.00 0.20 0.20 87 1015.4
20260905200517 22 74 1.6 6.4 0.00 0.20 0.20 88 1015.5
20260905195537 22 85 0.0 4.8 0.00 0.20 0.20 89 1015.6
20260905194537 22 79 1.6 6.4 0.00 0.20 0.20 89 1015.6
20260905193517 22 67 1.6 6.4 0.00 0.20 0.20 90 1015.6
20260905192537 22 79 1.6 8.0 0.00 0.20 0.20 91 1015.7
20260905191517 22 74 1.6 6.4 0.03 0.20 0.20 91 1015.8
20260905190518 22 77 3.2 11.3 0.08 0.20 0.20 93 1015.7
20260905185515 21 72 1.6 4.8 0.08 0.20 0.20 96 1015.8
20260905184538 21 88 0.0 8.0 0.08 0.18 0.18 97 1015.9
20260905183515 20 107 0.0 3.2 0.05 0.18 0.18 97 1016.1
20260905182515 20 75 0.0 3.2 0.05 0.18 0.18 96 1016.3
20260905181515 20 93 1.6 4.8 0.05 0.18 0.18 96 1016.3
20260905180516 20 94 0.0 4.8 0.00 0.13 0.13 96 1016.2
20260905175516 20 2 0.0 3.2 0.00 0.13 0.13 95 1016.2
20260905174516 20 86 1.6 4.8 0.00 0.13 0.13 95 1016.1
20260905173517 20 354 0.0 1.6 0.00 0.13 0.13 95 1016.1
20260905172516 20 94 1.6 9.7 0.00 0.13 0.13 95 1016.0
20260905171517 20 84 1.6 8.0 0.00 0.13 0.13 95 1016.0
20260905170517 20 87 1.6 9.7 0.00 0.13 0.13 95 1016.0
20260905165517 20 82 1.6 6.4 0.00 0.13 0.13 95 1016.0
20260905164520 20 105 1.6 9.7 0.00 0.13 0.13 95 1016.0
20260905163517 20 102 1.6 8.0 0.00 0.13 0.13 96 1016.0
20260905162518 20 82 1.6 8.0 0.00 0.13 0.13 96 1016.0
20260905161517 20 83 1.6 6.4 0.03 0.13 0.13 96 1016.0
20260905160518 20 91 1.6 8.0 0.05 0.13 0.13 95 1015.9
20260905155515 19 90 3.2 6.4 0.08 0.15 0.13 95 1015.8
20260905154518 19 75 1.6 8.0 0.10 0.20 0.13 96 1015.6
20260905153515 19 72 3.2 12.9 0.13 0.30 0.13 95 1015.5
20260905152515 19 81 1.6 8.0 0.13 0.36 0.13 95 1015.4
20260905151515 19 102 4.8 11.3 0.10 0.41 0.10 95 1015.4
20260905150516 19 99 3.2 11.3 0.08 0.43 0.08 94 1015.5
20260905145516 20 78 3.2 9.7 0.05 0.46 0.05 93 1015.5
20260905144516 20 68 1.6 4.8 0.03 0.48 0.03 91 1015.4
20260905143516 20 83 4.8 9.7 0.00 0.46 0.00 88 1015.4
20260905142517 20 107 1.6 8.0 0.00 0.48 0.00 88 1015.4
20260905141517 20 85 1.6 8.0 0.00 0.56 0.00 88 1015.4
20260905140557 20 114 0.0 4.8 0.00 0.61 0.00 89 1015.3
20260905135517 20 51 1.6 4.8 0.00 0.69 0.00 88 1015.3
20260905134517 20 95 1.6 8.0 0.00 0.74 0.00 88 1015.2
20260905133520 21 97 3.2 9.7 0.00 0.76 0.00 88 1015.3
20260905132517 21 88 3.2 9.7 0.00 0.76 0.00 88 1015.2
20260905131517 21 98 6.4 12.9 0.00 0.79 0.00 89 1014.9
20260905130518 21 99 3.2 14.5 0.00 0.84 0.00 91 1014.9
20260905125518 20 101 3.2 8.0 0.00 0.94 0.00 93 1014.7